sat.trackr.live / text

‹ back to catalog

FLOCK 4G-9

NORAD 62622 · 2025-009P

PAYLOAD ACTIVE UNKNOWN

§ Identity

Operator
Country
US
Launch date
2025-01-14
Launch site
AFWTR
Launch vehicle
Mass (kg)
RCS (m²)

Purposes: earth_obs

External: N2YO · Heavens-Above · Gunter

§ Orbital elements

Epoch: 2026-05-25T03:41:06.326016Z

Period
94.27 min
Inclination
97.3960°
Eccentricity
0.0005674
Mean motion
15.27596118 rev/d
Perigee alt
479.1 km
Apogee alt
486.9 km
Semi-major
6,861.1 km
B*
3.3142e-4
RAAN
226.2803°
Arg perigee
60.3997°
Mean anomaly
299.7807°
Rev number
7,534

§ Raw data

FLOCK 4G-91 62622U 25009P   26145.15354544  .00008875  00000+0  33142-3 0  99962 62622  97.3960 226.2803 0005674  60.3997 299.7807 15.27596118 75349

JSON: /api/v1/satellites/62622 · /tle

For live sub-satellite position, see the globe view (requires WebGL).

§ Visibility from observer

Set your observer location to see the next 7 days of passes ≥ 10°. The values pass through the URL so the page stays shareable.

No JS? Fill the form by hand. The geolocation button needs JavaScript.